Location: Roland
(31.1349°N, 85.4372°W)
Time: 19:46:17
(UTC+00:00)

SR - Pass Details

Date: 23 April 2021
Orbit: 573 x 882 km, 66.7° (Epoch: 13 May)

Event Time Altitude Azimuth Distance (km) Brightness Sun altitude
Rises 21:06:00 0° 341° (NNW) 3,426 ? 39.4°
Reaches altitude 10° 21:08:39 10° 347° (NNW) 2,455 ? 38.8°
Maximum altitude 21:14:07 48° 61° (ENE) 1,033 ? 37.7°
Drops below altitude 10° 21:19:09 10° 135° (SE) 2,261 ? 36.6°
Sets 21:21:30 0° 141° (SE) 3,131 ? 36.1°
